Location: Ariel
(45.9570°N, 122.5700°W)
Time: 10:15:08
(UTC-07:00)

Vanguard 3 - Pass Details

Date: 02 September 2019
Orbit: 508 x 3262 km, 33.3° (Epoch: 18 October)

Event Time Altitude Azimuth Distance (km) Brightness Sun altitude
Rises 12:47:39 0° 212° (SSW) 7,197 12.4 51.5°
Reaches altitude 10° 12:53:52 10° 202° (SSW) 6,028 12.3 51.7°
Maximum altitude 13:07:18 27° 154° (SSE) 4,062 11.9 51.8°
Drops below altitude 10° 13:17:11 10° 104° (ESE) 4,392 11.1 51.8°
Sets 13:20:46 0° 92° (E) 4,997 11.2 51.8°
